Location: Deuil
(48.9767°N, 2.3272°E)
Time: 03:54:20
(UTC+00:00)

Cosmos 2360 Rocket - Pass Details

Date: 24 May 2022
Orbit: 832 x 846 km, 71.0° (Epoch: 03 July)

Event Time Altitude Azimuth Distance (km) Brightness Sun altitude
Exits shadow 23:54:43 22° 234° (SW) 1,764 3.5 -20.1°
Maximum altitude 23:58:16 54° 304° (NW) 1,018 2.7 -20.1°
Drops below altitude 10° 00:03:48 10° 22° (NNE) 2,469 5.7 -20.0°
Sets 00:06:20 0° 27° (NNE) 3,409 6.6 -20.0°
